Weather History for Milan, Italy

Change the Weather History Date:

Tuesday, December 11, 2012

  Actual Average Record
Temperature  
Mean Temperature 34 °F -  
Max Temperature 48 °F 44 °F 59 °F (2000)
Min Temperature 21 °F 25 °F 19 °F (2001)
Degree Days  
Heating Degree Days 30    
Moisture  
Dew Point 13 °F    
Average Humidity 46    
Maximum Humidity 93    
Minimum Humidity 18    
Precipitation  
Precipitation 0.00 in 0.08 in - ()
Sea Level Pressure  
Sea Level Pressure 29.95 in    
Wind  
Wind Speed 4 mph ()    
Max Wind Speed 9 mph    
Max Gust Speed -    
Averages and records for this station are not official NWS values.
T = Trace of Precipitation, MM = Missing Value Source: Averaged Metar Reports

Daily Weather History Graph

Daily Weather History Graph

Search for Another Location

Airport:

Trip Planner

Search our weather history database for the weather conditions in past years. The results will help you decide how hot, cold, wet, or windy it might be!

Date:

Astronomy

Dec. 11, 2012 Rise Set
Actual Time 7:55 AM CET 4:41 PM CET
Civil Twilight 7:21 AM CET 5:15 PM CET
Nautical Twilight 6:44 AM CET 5:52 PM CET
Astronomical Twilight 6:07 AM CET 6:28 PM CET
Moon 5:27 AM CET (12/11) 3:08 PM CET (12/11)
Length of Visible Light 9h 53m
Length of Day
8h 45m
Waning Crescent, 5% of the Moon is Illuminated
Dec 11
Waning Crescent
Dec 13
New
Dec 20
First Quarter
Dec 28
Full
Jan 5
Last Quarter

Hourly Weather History & Observations

Time (CET) Temp. Windchill Dew Point Humidity Pressure Visibility Wind Dir Wind Speed Gust Speed Precip Events Conditions
12:20 AM 32.0 °F - 19.4 °F 60% 29.86 in - NE 2.3 mph - N/A   Clear
12:50 AM 24.8 °F 20.5 °F 17.6 °F 74% 29.86 in - North 3.5 mph - N/A   Clear
1:20 AM 33.8 °F 28.6 °F 21.2 °F 60% 29.86 in - NNE 5.8 mph - N/A   Clear
1:50 AM 30.2 °F 25.4 °F 19.4 °F 64% 29.86 in - WNW 4.6 mph - N/A   Clear
2:20 AM 28.4 °F 24.6 °F 19.4 °F 69% 29.86 in - NNW 3.5 mph - N/A   Clear
2:50 AM 26.6 °F 22.6 °F 19.4 °F 74% 29.89 in - SSW 3.5 mph - N/A   Clear
3:20 AM 26.6 °F - 19.4 °F 74% 29.89 in - Variable 1.2 mph - N/A   Clear
3:50 AM 23.0 °F - 17.6 °F 80% 29.89 in - North 2.3 mph - N/A   Clear
4:50 AM 21.2 °F - 17.6 °F 86% 29.89 in - NNW 2.3 mph - N/A   Clear
5:20 AM 23.0 °F - 17.6 °F 80% 29.89 in - Calm Calm - N/A   Clear
5:50 AM 21.2 °F 14.9 °F 19.4 °F 93% 29.89 in - NNW 4.6 mph - N/A   Clear
6:20 AM 23.0 °F - 19.4 °F 86% 29.89 in - Variable 1.2 mph - N/A   Clear
6:50 AM 21.2 °F - 17.6 °F 86% 29.89 in - Calm Calm - N/A   Clear
7:20 AM 21.2 °F - 15.8 °F 80% 29.89 in - Calm Calm - N/A   Clear
7:50 AM 24.8 °F - 21.2 °F 86% 29.89 in - Variable 2.3 mph - N/A   Clear
8:20 AM 24.8 °F 19.1 °F 19.4 °F 80% 29.89 in - North 4.6 mph - N/A   Clear
8:50 AM 30.2 °F 25.4 °F 23.0 °F 75% 29.89 in - North 4.6 mph - N/A   Clear
9:20 AM 35.6 °F - 24.8 °F 65% 29.92 in - Variable 2.3 mph - N/A   Clear
9:50 AM 39.2 °F - 24.8 °F 56% 29.92 in - Variable 1.2 mph - N/A   Clear
10:20 AM 41.0 °F - 24.8 °F 53% 29.92 in - Variable 2.3 mph - N/A   Clear
10:50 AM 42.8 °F - 24.8 °F 49% 29.92 in - Variable 2.3 mph - N/A   Clear
11:20 AM 44.6 °F - 23.0 °F 43% 29.92 in - Variable 2.3 mph - N/A   Clear
11:50 AM 46.4 °F 45.2 °F 15.8 °F 29% 29.92 in - North 3.5 mph - N/A   Clear
12:20 PM 48.2 °F - 14.0 °F 25% 29.92 in - North 4.6 mph - N/A   Clear
12:50 PM 48.2 °F - 14.0 °F 25% 29.92 in - North 4.6 mph - N/A   Clear
1:20 PM 48.2 °F - 12.2 °F 24% 29.92 in - North 5.8 mph - N/A   Clear
1:50 PM 48.2 °F - 8.6 °F 20% 29.92 in - NE 5.8 mph - N/A   Clear
2:20 PM 48.2 °F - 6.8 °F 19% 29.92 in - NNE 8.1 mph - N/A   Clear
2:50 PM 46.4 °F 41.9 °F 5.0 °F 18% 29.92 in - NE 9.2 mph - N/A   Clear
3:20 PM 46.4 °F 42.4 °F 5.0 °F 18% 29.95 in - NNE 8.1 mph - N/A   Clear
3:50 PM 44.6 °F 40.2 °F 5.0 °F 20% 29.95 in - NNE 8.1 mph - N/A   Clear
4:20 PM 42.8 °F 38.6 °F 5.0 °F 21% 29.95 in - NNE 6.9 mph - N/A   Clear
4:50 PM 42.8 °F 37.5 °F 3.2 °F 19% 29.98 in - North 9.2 mph - N/A   Clear
5:20 PM 41.0 °F 35.2 °F 3.2 °F 21% 29.98 in - North 9.2 mph - N/A   Clear
5:50 PM 39.2 °F 34.2 °F 3.2 °F 22% 30.01 in - North 6.9 mph - N/A   Clear
6:20 PM 39.2 °F 35.0 °F 3.2 °F 22% 30.04 in - North 5.8 mph - N/A   Clear
6:50 PM 37.4 °F 32.8 °F 5.0 °F 26% 30.04 in - North 5.8 mph - N/A   Clear
7:20 PM 35.6 °F 31.7 °F 5.0 °F 28% 30.04 in - North 4.6 mph - N/A   Clear
7:50 PM 35.6 °F 30.7 °F 5.0 °F 28% 30.04 in - North 5.8 mph - N/A   Clear
8:20 PM 35.6 °F 29.9 °F 5.0 °F 28% 30.06 in - North 6.9 mph - N/A   Clear
8:50 PM 33.8 °F 28.6 °F 5.0 °F 30% 30.06 in - North 5.8 mph - N/A   Clear
9:20 PM 35.6 °F 30.7 °F 5.0 °F 28% 30.06 in - North 5.8 mph - N/A   Clear
9:50 PM 39.2 °F 34.2 °F 3.2 °F 22% 30.06 in - North 6.9 mph - N/A   Clear
10:20 PM 37.4 °F 32.8 °F 3.2 °F 24% 30.06 in - North 5.8 mph - N/A   Clear
10:50 PM 37.4 °F 32.1 °F 3.2 °F 24% 30.06 in - North 6.9 mph - N/A   Clear
11:20 PM 37.4 °F 32.8 °F 3.2 °F 24% 30.06 in - North 5.8 mph - N/A   Clear
11:50 PM 33.8 °F 30.8 °F 5.0 °F 30% 30.09 in - NNW 3.5 mph - N/A   Clear